Meeker, CO

7:22 AM MST on February 09, 2016 (GMT -0700)
Meeker

Weather History for KEEO - April, 2014

Change the Weather History Date:

Tuesday, April 22, 2014

  Actual Average Record
Temperature  
Mean Temperature 56 °F 44 °F  
Max Temperature 72 °F 59 °F 77 °F (2006)
Min Temperature 40 °F 28 °F 21 °F (2002)
Degree Days  
Heating Degree Days 9 21  
Month to date heating degree days 460 520  
Since 1 July heating degree days 7217 7252  
Cooling Degree Days 0 0  
Month to date cooling degree days 0 0  
Year to date cooling degree days 0 0  
Growing Degree Days 6 (Base 50)    
Moisture  
Dew Point 30 °F    
Average Humidity 46    
Maximum Humidity 76    
Minimum Humidity 16    
Precipitation  
Precipitation T in 0.05 in 0.19 in (1999)
Month to date precipitation 1.32 1.11  
Year to date precipitation 5.38 4.29  
Sea Level Pressure  
Sea Level Pressure 29.71 in    
Wind  
Wind Speed 11 mph (South)    
Max Wind Speed 44 mph    
Max Gust Speed 57 mph    
Visibility 10 miles    
Events Rain    
T = Trace of Precipitation, MM = Missing Value Source: NWS Daily Summary

Daily Weather History Graph

Daily Weather History Graph

Search for Another Location

Airport or City:

Trip Planner

Search our weather history database for the weather conditions in past years. The results will help you decide how hot, cold, wet, or windy it might be!

Date:

Astronomy

Apr. 22, 2014 Rise Set
Actual Time 6:23 AM MDT 7:57 PM MDT
Civil Twilight 5:54 AM MDT 8:25 PM MDT
Nautical Twilight 5:20 AM MDT 9:00 PM MDT
Astronomical Twilight 4:43 AM MDT 9:37 PM MDT
Moon 2:14 AM MDT (4/22) 1:02 PM MDT (4/22)
Length of Visible Light 14h 31m
Length of Day
13h 33m
Last Quarter, 45% of the Moon is Illuminated
Apr 22
Last Quarter
Apr 29
New
May 6
First Quarter
May 14
Full
May 21
Last Quarter

Hourly Weather History & Observations

Time (MDT) Temp. Windchill Dew Point Humidity Pressure Visibility Wind Dir Wind Speed Gust Speed Precip Events Conditions
12:53 AM 41.0 °F 37.1 °F 32.0 °F 70% 29.96 in 10.0 mi ENE 5.8 mph - N/A   Partly Cloudy
1:53 AM 41.0 °F 38.0 °F 30.9 °F 67% 29.95 in 10.0 mi NNE 4.6 mph - N/A   Scattered Clouds
2:53 AM 41.0 °F 37.1 °F 32.0 °F 70% 29.92 in 10.0 mi NE 5.8 mph - N/A   Mostly Cloudy
3:53 AM 42.1 °F 39.2 °F 32.0 °F 67% 29.88 in 10.0 mi NE 4.6 mph - N/A   Clear
4:53 AM 42.1 °F 40.2 °F 32.0 °F 67% 29.87 in 10.0 mi ENE 3.5 mph - N/A   Mostly Cloudy
5:53 AM 39.9 °F 37.8 °F 32.0 °F 73% 29.86 in 10.0 mi NE 3.5 mph - N/A   Clear
6:53 AM 41.0 °F 38.0 °F 32.0 °F 70% 29.86 in 10.0 mi ENE 4.6 mph - N/A   Scattered Clouds
7:53 AM 48.9 °F - 36.0 °F 61% 29.84 in 10.0 mi NNE 4.6 mph - N/A   Clear
8:53 AM 59.0 °F - 34.0 °F 39% 29.80 in 10.0 mi Variable 3.5 mph - N/A   Scattered Clouds
9:53 AM 64.0 °F - 28.9 °F 27% 29.77 in 10.0 mi SSW 20.7 mph 28.8 mph N/A   Partly Cloudy
10:53 AM 70.0 °F - 28.9 °F 22% 29.75 in 10.0 mi SSW 19.6 mph 33.4 mph N/A   Mostly Cloudy
11:53 AM 69.1 °F - 33.1 °F 26% 29.73 in 10.0 mi South 12.7 mph - N/A   Partly Cloudy
12:53 PM 72.0 °F - 30.0 °F 21% 29.69 in 10.0 mi SSW 21.9 mph 35.7 mph N/A   Partly Cloudy
1:53 PM 68.0 °F - 28.0 °F 22% 29.68 in 10.0 mi SSW 26.5 mph 39.1 mph N/A   Partly Cloudy
2:53 PM 69.1 °F - 21.9 °F 17% 29.66 in 10.0 mi SSW 21.9 mph 33.4 mph N/A   Partly Cloudy
3:53 PM 68.0 °F - 21.9 °F 17% 29.64 in 10.0 mi SSW 13.8 mph 26.5 mph N/A   Scattered Clouds
4:53 PM 66.9 °F - 21.9 °F 18% 29.61 in 10.0 mi SSW 15.0 mph 26.5 mph N/A   Clear
5:53 PM 64.9 °F - 25.0 °F 22% 29.60 in 10.0 mi SSW 8.1 mph - N/A   Mostly Cloudy
6:53 PM 62.1 °F - 30.0 °F 30% 29.57 in 10.0 mi South 4.6 mph - N/A   Overcast
7:53 PM 57.0 °F - 35.1 °F 44% 29.54 in 10.0 mi Calm Calm - N/A   Mostly Cloudy
8:53 PM 61.0 °F - 28.0 °F 29% 29.48 in 10.0 mi South 9.2 mph - N/A   Mostly Cloudy
9:53 PM 59.0 °F - 33.1 °F 38% 29.49 in 10.0 mi WSW 12.7 mph - 0.00 in Rain Light Rain
10:53 PM 59.0 °F - 30.0 °F 33% 29.44 in 10.0 mi South 5.8 mph - 0.00 in   Mostly Cloudy
11:34 PM 57.9 °F - 34.0 °F 41% 29.71 in 10.0 mi WSW 31.1 mph 46.0 mph 0.00 in Rain Light Rain
11:53 PM 57.9 °F - 32.0 °F 37% 29.46 in 10.0 mi WSW 17.3 mph 35.7 mph 0.00 in   Overcast